Location: Chiavari
(44.3167°N, 9.3167°E)
Time: 08:23:54
(UTC+01:00)

ISS - Visible Passes

Search period start: 21 February 2018 00:00
Search period end: 03 March 2018 00:00
Orbit: 402 x 407 km, 51.6° (Epoch: 21 February)

Date Brightness Start Highest point End Pass type
(mag) Time Alt. Az. Time Alt. Az. Time Alt. Az.
24 Feb -0.6 06:32:55 10° SSE 06:34:15 12° SE 06:35:35 10° ESE visible
26 Feb -1.6 06:23:04 10° SSW 06:25:51 26° SE 06:28:39 10° E visible
27 Feb -1.0 05:31:49 10° S 05:33:45 15° SE 05:35:42 10° E visible
28 Feb -3.3 06:14:20 10° SW 06:17:33 59° SE 06:20:47 10° ENE visible
01 Mar -2.3 05:23:48 21° S 05:25:19 32° SE 05:28:17 10° ENE visible
02 Mar -1.1 04:33:54 17° ESE 04:33:54 17° ESE 04:35:29 10° E visible
02 Mar -3.8 06:06:34 14° WSW 06:09:19 66° NNW 06:12:36 10° NE visible
